Weather History for Andalusia, AL

Change the Weather History Date:

Saturday, November 26, 2011

  Actual Average (KCEW) Record (KCEW)
Temperature  
Mean Temperature 67 °F -  
Max Temperature 77 °F 67 °F 79 °F (1989)
Min Temperature 57 °F 41 °F 23 °F (1950)
Cooling Degree Days 2    
Growing Degree Days 17 (Base 50)    
Moisture  
Dew Point 53 °F    
Average Humidity 59    
Maximum Humidity 78    
Minimum Humidity 42    
Precipitation  
Precipitation 0.00 in - - ()
Sea Level Pressure  
Sea Level Pressure 30.12 in    
Wind  
Wind Speed 5 mph (SSE)    
Max Wind Speed 10 mph    
Max Gust Speed 23 mph    
Visibility 10 miles    
Events      
Averages and records for this station are not official NWS values.
T = Trace of Precipitation, MM = Missing Value Source: NWS Daily Summary

Daily Weather History Graph

Daily Weather History Graph

Search for Another Location

Airport:

Trip Planner

Search our weather history database for the weather conditions in past years. The results will help you decide how hot, cold, wet, or windy it might be!

Date:

Astronomy

Nov. 26, 2011 Rise Set
Actual Time 6:22 AM CST 4:43 PM CST
Civil Twilight 5:56 AM CST 5:09 PM CST
Nautical Twilight 5:26 AM CST 5:39 PM CST
Astronomical Twilight 4:57 AM CST 6:08 PM CST
Moon 7:49 AM CST (11/26) 6:16 PM CST (11/26)
Length of Visible Light 11h 13m
Length of Day
10h 20m
Waxing Crescent, 3% of the Moon is Illuminated
Nov 26
Waxing Crescent
Dec 2
First Quarter
Dec 10
Full
Dec 17
Last Quarter
Dec 24
New

Hourly Weather History & Observations

Time (CST) Temp. Dew Point Humidity Pressure Visibility Wind Dir Wind Speed Gust Speed Precip Events Conditions
12:56 AM 57.9 °F 51.1 °F 78% 30.17 in 10.0 mi Calm Calm - N/A   Overcast
1:56 AM 60.1 °F 50.0 °F 69% 30.17 in 10.0 mi Calm Calm - N/A   Overcast
2:56 AM 60.1 °F 51.1 °F 72% 30.16 in 10.0 mi SSE 4.6 mph - N/A   Overcast
3:56 AM 62.1 °F 53.1 °F 72% 30.16 in 10.0 mi SE 5.8 mph - N/A   Overcast
4:56 AM 63.0 °F 54.0 °F 72% 30.16 in 10.0 mi SE 9.2 mph - N/A   Overcast
5:56 AM 63.0 °F 54.0 °F 72% 30.17 in 10.0 mi SSE 3.5 mph - N/A   Overcast
6:56 AM 64.0 °F 54.0 °F 70% 30.19 in 10.0 mi SE 5.8 mph - N/A   Overcast
7:56 AM 64.9 °F 54.0 °F 68% 30.20 in 10.0 mi SE 5.8 mph - N/A   Overcast
8:56 AM 70.0 °F 54.0 °F 57% 30.20 in 10.0 mi SE 9.2 mph - N/A   Mostly Cloudy
9:56 AM 73.9 °F 55.0 °F 52% 30.19 in 10.0 mi SSE 8.1 mph 17.3 mph N/A   Partly Cloudy
10:56 AM 75.9 °F 53.1 °F 45% 30.17 in 10.0 mi SSE 10.4 mph 23.0 mph N/A   Clear
11:56 AM 77.0 °F 53.1 °F 43% 30.14 in 10.0 mi South 9.2 mph 18.4 mph N/A   Scattered Clouds
12:56 PM 77.0 °F 53.1 °F 43% 30.11 in 10.0 mi South 10.4 mph 17.3 mph N/A   Mostly Cloudy
1:56 PM 77.0 °F 52.0 °F 42% 30.08 in 10.0 mi Variable 5.8 mph - N/A   Mostly Cloudy
2:56 PM 75.9 °F 52.0 °F 43% 30.08 in 10.0 mi South 8.1 mph 16.1 mph N/A   Overcast
3:56 PM 75.9 °F 51.1 °F 42% 30.08 in 10.0 mi South 6.9 mph - N/A   Scattered Clouds
4:56 PM 72.0 °F 52.0 °F 49% 30.08 in 10.0 mi South 6.9 mph - N/A   Clear
5:56 PM 71.1 °F 52.0 °F 51% 30.08 in 10.0 mi Variable 6.9 mph - N/A   Clear
6:56 PM 69.1 °F 52.0 °F 54% 30.07 in 10.0 mi South 4.6 mph - N/A   Clear
7:56 PM 68.0 °F 53.1 °F 59% 30.07 in 10.0 mi SSE 5.8 mph - N/A   Clear
8:56 PM 68.0 °F 54.0 °F 61% 30.05 in 10.0 mi SSE 6.9 mph - N/A   Clear
9:56 PM 68.0 °F 55.9 °F 65% 30.06 in 10.0 mi South 8.1 mph - N/A   Mostly Cloudy
10:56 PM 68.0 °F 57.0 °F 68% 30.05 in 10.0 mi South 5.8 mph - N/A   Overcast
11:56 PM 69.1 °F 57.9 °F 68% 30.03 in 10.0 mi South 3.5 mph - N/A   Mostly Cloudy